Regional Weather Roundup
Issued by NWS

Home | Current Version | Previous Version | Text Only | Print | Product List | Glossary On
Versions: 1 2 3 4 5 6 7 8 9 10 11 12 13 14 15 16 17 18 19 20 21 22 23 24 25 26 27 28 29 30 31 32 33 34 35 36 37 38 39 40 41 42 43 44 45 46 47 48 49 50
946
ASUS43 KMPX 281710
RWRMN
WEATHER ROUNDUP FOR MINNESOTA
NATIONAL WEATHER SERVICE TWIN CITIES/CHANHASSEN MN
1200 PM CDT FRI APR 28 2017


NOTE: "FAIR" INDICATES FEW OR NO CLOUDS BELOW 12,000 FEET WITH NO
SIGNIFICANT WEATHER AND/OR OBSTRUCTIONS TO VISIBILITY. N/A MEANS
CURRENT SKY AND/OR WEATHER CONDITIONS ARE NOT AVAILABLE.

MNZ060>063-068>070-281800-
   Twin Cities Metro

CITY           SKY/WX    TMP DP  RH WIND       PRES   REMARKS
TWIN CITIES    CLOUDY    43  25  49 CALM      29.95R
ST PAUL        CLOUDY    42  26  53 VRB3      29.96R
CRYSTAL        CLOUDY    42  24  49 NW6       29.95R
BLAINE         PTSUNNY   45  28  53 NW12      29.95R
LAKEVILLE      MOSUNNY   43  28  56 N9        29.93F
EDEN PRAIRIE   CLOUDY    45  28  51 NW9       29.94R
SOUTH ST PAUL  CLOUDY    43  27  53 W3        29.95S
LAKE ELMO      FAIR      43  30  61 NW3       29.96R
$$
MNZ001>005-007-008-013>017-022>024-027-028-281800-
   Northwest Minnesota

CITY           SKY/WX    TMP DP  RH WIND       PRES   REMARKS
BEMIDJI        SUNNY     38  22  50 NW12      29.92R
HALLOCK        SUNNY     46  12  25 N16G25    29.97R
ROSEAU         SUNNY     43  21  42 N9        29.93S
WARROAD        SUNNY     41  21  45 NW12      29.93R
THIEF RVR FALL SUNNY     40  23  50 NW17      29.97R
CROOKSTON      SUNNY     43  27  52 N15       29.99R
FOSSTON        SUNNY     43  19  39 NW10G20   29.96R
DETROIT LAKES  SUNNY     37  30  75 N10G18    29.98R
MOORHEAD       SUNNY     43  28  56 NW14G20   30.00S
PARK RAPIDS    SUNNY     43  19  38 N13       29.92R
MAHNOMEN       FAIR      40  27  60 NW9       29.97R
$$
MNZ006-009>011-018-025>026-281800-
   North Central Minnesota

CITY           SKY/WX    TMP DP  RH WIND       PRES   REMARKS
BAUDETTE       SUNNY     39  15  37 NW18G25   29.89R
FLAG ISLAND    CLOUDY    37  18  44 NW18      29.91R
INTL FALLS     PTSUNNY   37  23  56 NW18G28   29.86R
WASKISH        CLOUDY    43  21  42 N12G20    29.90R
BIG FORK       SUNNY     43  19  39 NW13G21   29.86R
LONGVILLE      SUNNY     41  27  56 W9        29.91R
GRAND RAPIDS   SUNNY     41  21  44 NW20G26   29.89S
CRANE LAKE     CLOUDY    34  23  64 NW12G20   29.84R WCI  25
ORR            PTSUNNY   39  19  45 NW14      29.81R
COOK           PTSUNNY   37  23  56 NW12G21   29.84R
WALKER         FAIR      39  20  46 NW12G20   29.91S
$$
MNZ012-019>021-037-281800-
   Northeast Minnesota

CITY           SKY/WX    TMP DP  RH WIND       PRES   REMARKS
DULUTH         CLOUDY    38  26  62 W16G25    29.87R
ELY            PTSUNNY   36  21  55 W16G25    29.80R
HIBBING        SUNNY     39  23  52 NW18      29.84R
EVELETH        PTSUNNY   37  20  49 NW14G24   29.85R
DULUTH HARBOR  CLOUDY    39  27  60 SW15      29.91S
TWO HARBORS    CLOUDY    39  28  65 W12G18    29.84R
SILVER BAY     CLOUDY    37  27  65 W6        29.82R
GRAND MARAIS     N/A     34  28  79 VRB6      29.81R WCI  29
G MARAIS ARPRT FLURRIES  28  19  69 W3        29.75R
$$
MNZ029>031-032-039>041-046>048-054>057-064-281800-
   West Central Minnesota

CITY           SKY/WX    TMP DP  RH WIND       PRES   REMARKS
FERGUS FALLS   SUNNY     43  27  52 N7G18     29.98S
WHEATON        SUNNY     45  27  49 N13G20    30.01S
MORRIS         SUNNY     45  30  57 N17G23    29.96S
ALEXANDRIA     SUNNY     43  28  55 N9        29.96S
ELBOW LAKE     FAIR      41  29  61 NE7       29.98S
WADENA         SUNNY     41  30  65 CALM      29.94S
GLENWOOD       SUNNY     45  28  53 N15       29.96R
APPLETON       CLOUDY    46  28  49 N15G22    29.96S
BENSON         CLOUDY    48  25  40 NE13G25   29.98R
ORTONVILLE     CLOUDY    45  28  53 N15G22    29.97S
MADISON        CLOUDY    46  32  57 N16       29.96F
WILLMAR        FAIR      45  32  61 N15       29.96S
$$
MNZ033>034-036-042>043-049>051-058-059-281800-
   Central Minnesota

CITY           SKY/WX    TMP DP  RH WIND       PRES   REMARKS
ST CLOUD       MOSUNNY   42  30  62 N12G22    29.95R
SAUK CENTRE    FAIR      40  28  60 N15       29.96S
PAYNESVILLE    SUNNY     42  30  63 N12G18    29.96R
AITKIN         MOSUNNY   43  27  52 W10       29.91S
PINE RIVER     SUNNY     39  27  60 NW8       29.96S
BRAINERD       SUNNY     40  25  55 N8        29.94S
STAPLES        MOSUNNY   39  28  65 NW10      29.95R
LONG PRAIRIE   FAIR      39  28  65 W9G16     29.96S
LITTLE FALLS   SUNNY     41  27  56 NW8       29.96R
LITCHFIELD     CLOUDY    43  32  65 N8        29.96R
BUFFALO        CLOUDY    42  28  58 N9        29.96S
MAPLE LAKE     CLOUDY    43  31  62 N8        29.97R
HUTCHINSON     SUNNY     41  32  68 CALM      29.97R
$$
MNZ037-044-045-052-053-281800-
   East Central Minnesota

CITY           SKY/WX    TMP DP  RH WIND       PRES   REMARKS
PRINCETON      MOSUNNY   45  28  53 W9G17     29.95R
MORA           MOSUNNY   39  27  60 NW8G17    29.96R
CAMBRIDGE      MOSUNNY   43  28  56 W9G16     29.92S
RUSH CITY      PTSUNNY   41  28  59 NW5       29.95R
MOOSE LAKE     CLOUDY    39  27  60 W8G18     29.90R
HINCKLEY       PTSUNNY   41  30  65 W5        29.93S
CLOQUET        CLOUDY    37  23  56 W15       29.89R
MCGREGOR       PTSUNNY   37  32  81 NW8       29.91S
$$
MNZ071>073-080-081-089-090-097-098-281800-
   Southwest Minnesota

CITY           SKY/WX    TMP DP  RH WIND       PRES   REMARKS
MONTEVIDEO     CLOUDY    45  30  57 NE15      29.96S
GRANITE FALLS  CLOUDY    44  33  64 N13       29.97F
CANBY          CLOUDY    44  30  58 N12G18    29.97S
MARSHALL       CLOUDY    42  30  62 N15G21    29.96R
REDWOOD FALLS  CLOUDY    44  29  55 N9        29.95S
OLIVIA         CLOUDY    41  32  70 N9        29.95S
PIPESTONE      CLOUDY    41  25  52 E12G17    29.93R
WINDOM         CLOUDY    43  30  61 N6        29.94R
WORTHINGTON    CLOUDY    39  30  70 N15       29.93F
JACKSON        CLOUDY    41  30  65 N13       29.94S
TRACY          MOSUNNY   43  33  67 N13G18    29.96R
SLAYTON        CLOUDY    40  29  67 N10       29.95R
$$
MNZ065>067-074>077-082>085-091>093-281800-
   South Central Minnesota

CITY           SKY/WX    TMP DP  RH WIND       PRES   REMARKS
MANKATO        CLOUDY    42  30  62 NE10      29.93F
NEW ULM        MOSUNNY   43  28  56 N9G16     29.93F
ST JAMES       CLOUDY    43  32  65 NE7       29.95R
FAIRMONT       CLOUDY    42  33  70 N10       29.94R
GLENCOE        CLOUDY    42  34  71 N7        29.95S
FARIBAULT      CLOUDY    45  30  57 N6        29.93F
OWATONNA       CLOUDY    45  30  57 CALM      29.92S
WASECA         CLOUDY    43  32  65 NE6       29.94R
ALBERT LEA     CLOUDY    41  30  65 CALM      29.92R
$$
MNZ078>079-086>088-094>096-281800-
   Southeast Minnesota

CITY           SKY/WX    TMP DP  RH WIND       PRES   REMARKS
ROCHESTER      CLOUDY    43  32  65 N3        29.92S
RED WING       CLOUDY    45  25  45 N8        29.92F
STANTON        CLOUDY    45  32  61 N12       29.91F
DODGE CENTER   CLOUDY    41  32  70 NW5       29.92R
WINONA         CLOUDY    43  32  65 N5        29.93F
AUSTIN         CLOUDY    43  30  61 NE6       29.93R
PRESTON        CLOUDY    42  30  62 CALM      29.92R
$$
ABBREVIATIONS USED IN REMARKS
   TC - TEMPERATURES IN CELSIUS
  WCI - WIND CHILL INDEX
   HX - HEAT INDEX
  VSB - VISIBILITY
$$




USA.gov is the U.S. government's official web portal to all federal, state and local government web resources and services.